| time (UTC) | temp F | wind direction | speed knots | gust knots | rain 1hr in | rain 24hr in | rain mn in | humidity % | barometer mb |
| 20260506231611 | 101 | 230 | 0.0 | 0.0 | 0.00 | 0.00 | 0.00 | 51 | 1006.0 |
| 20260506231550 | 100 | 0 | 0.0 | 0.0 | 0.00 | 0.00 | 0.00 | 50 | 1006.2 |
| 20260506231111 | 101 | 230 | 0.0 | 0.0 | 0.00 | 0.00 | 0.00 | 52 | 1006.0 |
| 20260506230602 | 101 | 230 | 0.0 | 0.0 | 0.00 | 0.00 | 0.00 | 52 | 1005.9 |
| 20260506230103 | 100 | 230 | 0.0 | 1.7 | 0.00 | 0.00 | 0.00 | 52 | 1005.9 |
| 20260506230057 | 100 | 0 | 0.0 | 0.9 | 0.00 | 0.00 | 0.00 | 52 | 1006.1 |
| 20260506225602 | 100 | 230 | 0.0 | 1.7 | 0.00 | 0.00 | 0.00 | 53 | 1005.8 |
| 20260506225102 | 100 | 283 | 0.0 | 0.9 | 0.00 | 0.00 | 0.00 | 52 | 1005.8 |
| 20260506224602 | 100 | 58 | 0.0 | 0.0 | 0.00 | 0.00 | 0.00 | 52 | 1005.9 |
| 20260506224550 | 100 | 0 | 0.0 | 0.9 | 0.00 | 0.00 | 0.00 | 52 | 1006.1 |
| 20260506224102 | 100 | 58 | 0.0 | 0.0 | 0.00 | 0.00 | 0.00 | 53 | 1006.0 |
| 20260506223601 | 100 | 245 | 0.0 | 0.0 | 0.00 | 0.00 | 0.00 | 52 | 1005.9 |
| 20260506223101 | 100 | 202 | 0.0 | 0.0 | 0.00 | 0.00 | 0.00 | 52 | 1005.9 |
| 20260506223058 | 100 | 0 | 0.0 | 0.0 | 0.00 | 0.00 | 0.00 | 51 | 1006.1 |
| 20260506222604 | 100 | 202 | 0.0 | 0.0 | 0.00 | 0.00 | 0.00 | 53 | 1005.9 |
| 20260506222103 | 101 | 161 | 0.0 | 0.0 | 0.00 | 0.00 | 0.00 | 50 | 1006.0 |
| 20260506221604 | 101 | 169 | 0.0 | 0.0 | 0.00 | 0.00 | 0.00 | 53 | 1006.1 |
| 20260506221551 | 101 | 0 | 0.0 | 0.0 | 0.00 | 0.00 | 0.00 | 52 | 1006.2 |
| 20260506221323 | 101 | 169 | 0.0 | 0.0 | 0.00 | 0.00 | 0.00 | 51 | 1006.1 |
| 20260506220828 | 101 | 169 | 0.0 | 0.9 | 0.00 | 0.00 | 0.00 | 52 | 1006.2 |
| 20260506220049 | 101 | 0 | 0.0 | 0.9 | 0.00 | 0.00 | 0.00 | 51 | 1006.5 |
| 20260506215601 | 101 | 79 | 0.0 | 0.9 | 0.00 | 0.00 | 0.00 | 52 | 1006.2 |
| 20260506215102 | 101 | 253 | 0.0 | 0.9 | 0.00 | 0.00 | 0.00 | 52 | 1006.2 |
| 20260506214602 | 101 | 253 | 0.0 | 0.9 | 0.00 | 0.00 | 0.00 | 52 | 1006.3 |
| 20260506214549 | 101 | 0 | 0.0 | 0.9 | 0.00 | 0.00 | 0.00 | 51 | 1006.5 |
| 20260506214101 | 101 | 244 | 0.0 | 0.9 | 0.00 | 0.00 | 0.00 | 52 | 1006.3 |
| 20260506214051 | 102 | 212 | 0.0 | 0.0 | 0.00 | 0.00 | 0.00 | 53 | 1006.3 |
| 20260506213102 | 101 | 170 | 0.0 | 0.9 | 0.00 | 0.00 | 0.00 | 52 | 1006.2 |
| 20260506213053 | 101 | 0 | 0.0 | 0.0 | 0.00 | 0.00 | 0.00 | 52 | 1006.5 |
| 20260506212604 | 101 | 170 | 0.0 | 0.9 | 0.00 | 0.00 | 0.00 | 53 | 1006.3 |
| 20260506212103 | 101 | 334 | 0.0 | 0.9 | 0.00 | 0.00 | 0.00 | 52 | 1006.4 |
| 20260506211825 | 101 | 155 | 0.0 | 0.9 | 0.00 | 0.00 | 0.00 | 51 | 1006.3 |
| 20260506211549 | 101 | 0 | 0.0 | 0.9 | 0.00 | 0.00 | 0.00 | 50 | 1006.6 |
| 20260506211116 | 102 | 142 | 0.0 | 0.9 | 0.00 | 0.00 | 0.00 | 51 | 1006.4 |
| 20260506210604 | 102 | 311 | 0.0 | 0.0 | 0.00 | 0.00 | 0.00 | 51 | 1006.4 |
| 20260506210110 | 101 | 122 | 0.0 | 0.9 | 0.00 | 0.00 | 0.00 | 52 | 1006.4 |
| 20260506210051 | 101 | 0 | 0.0 | 0.0 | 0.00 | 0.00 | 0.00 | 52 | 1006.7 |
| 20260506205604 | 101 | 122 | 0.0 | 0.9 | 0.00 | 0.00 | 0.00 | 52 | 1006.7 |
| 20260506205104 | 101 | 194 | 0.0 | 0.0 | 0.00 | 0.00 | 0.00 | 53 | 1006.7 |
| 20260506204602 | 100 | 194 | 0.0 | 0.0 | 0.00 | 0.00 | 0.00 | 52 | 1006.8 |
| 20260506204556 | 100 | 0 | 0.0 | 2.6 | 0.00 | 0.00 | 0.00 | 52 | 1007.0 |
| 20260506204321 | 100 | 105 | 0.0 | 2.6 | 0.00 | 0.00 | 0.00 | 52 | 1006.7 |
| 20260506203602 | 101 | 211 | 0.0 | 2.6 | 0.00 | 0.00 | 0.00 | 52 | 1006.9 |
| 20260506203327 | 101 | 321 | 0.0 | 0.0 | 0.00 | 0.00 | 0.00 | 55 | 1006.9 |
| 20260506203047 | 101 | 0 | 0.0 | 0.0 | 0.00 | 0.00 | 0.00 | 55 | 1007.1 |
| 20260506202604 | 100 | 321 | 0.0 | 0.0 | 0.00 | 0.00 | 0.00 | 52 | 1006.9 |
| 20260506202104 | 100 | 321 | 0.0 | 0.0 | 0.00 | 0.00 | 0.00 | 53 | 1007.0 |
| 20260506201604 | 100 | 290 | 0.0 | 0.0 | 0.00 | 0.00 | 0.00 | 52 | 1007.0 |
| 20260506201543 | 100 | 0 | 0.0 | 0.0 | 0.00 | 0.00 | 0.00 | 52 | 1007.3 |
| 20260506201334 | 100 | 152 | 0.0 | 0.0 | 0.00 | 0.00 | 0.00 | 53 | 1007.1 |
| 20260506200603 | 100 | 152 | 0.0 | 0.9 | 0.00 | 0.00 | 0.00 | 53 | 1007.1 |
| 20260506200107 | 99 | 0 | 0.0 | 0.9 | 0.00 | 0.00 | 0.00 | 55 | 1007.5 |
| 20260506200104 | 99 | 152 | 0.0 | 0.9 | 0.00 | 0.00 | 0.00 | 55 | 1007.1 |
| 20260506195603 | 99 | 139 | 0.0 | 0.9 | 0.00 | 0.00 | 0.00 | 55 | 1007.2 |
| 20260506195121 | 99 | 252 | 0.0 | 0.0 | 0.00 | 0.00 | 0.00 | 57 | 1007.3 |
| 20260506194603 | 99 | 174 | 0.0 | 0.9 | 0.00 | 0.00 | 0.00 | 54 | 1007.4 |
| 20260506194558 | 99 | 0 | 0.0 | 0.9 | 0.00 | 0.00 | 0.00 | 53 | 1007.6 |
| 20260506194103 | 100 | 174 | 0.0 | 0.9 | 0.00 | 0.00 | 0.00 | 54 | 1007.5 |
| 20260506193603 | 100 | 229 | 0.0 | 0.9 | 0.00 | 0.00 | 0.00 | 56 | 1007.5 |
| 20260506193103 | 100 | 229 | 0.0 | 0.9 | 0.00 | 0.00 | 0.00 | 54 | 1007.7 |
| 20260506193052 | 99 | 0 | 0.0 | 0.9 | 0.00 | 0.00 | 0.00 | 53 | 1008.1 |
| 20260506192824 | 99 | 187 | 0.0 | 0.0 | 0.00 | 0.00 | 0.00 | 56 | 1007.9 |
| 20260506192117 | 98 | 187 | 0.0 | 0.0 | 0.00 | 0.00 | 0.00 | 56 | 1007.8 |
| 20260506191604 | 98 | 167 | 0.0 | 0.0 | 0.00 | 0.00 | 0.00 | 57 | 1007.8 |
| 20260506191547 | 97 | 0 | 0.0 | 0.0 | 0.00 | 0.00 | 0.00 | 58 | 1008.1 |
| 20260506191117 | 97 | 167 | 0.0 | 0.0 | 0.00 | 0.00 | 0.00 | 59 | 1007.8 |
| 20260506190603 | 96 | 167 | 0.0 | 0.0 | 0.00 | 0.00 | 0.00 | 59 | 1008.0 |
| 20260506190107 | 96 | 167 | 0.0 | 0.0 | 0.00 | 0.00 | 0.00 | 60 | 1008.1 |
| 20260506190053 | 96 | 0 | 0.0 | 0.9 | 0.00 | 0.00 | 0.00 | 59 | 1008.4 |
| 20260506185602 | 96 | 167 | 0.0 | 0.9 | 0.00 | 0.00 | 0.00 | 62 | 1008.2 |
| 20260506185102 | 95 | 167 | 0.0 | 5.2 | 0.00 | 0.00 | 0.00 | 61 | 1008.2 |
| 20260506184602 | 94 | 127 | 0.0 | 5.2 | 0.00 | 0.00 | 0.00 | 64 | 1008.2 |
| 20260506184545 | 94 | 0 | 0.0 | 4.3 | 0.00 | 0.00 | 0.00 | 64 | 1008.5 |
| 20260506184102 | 95 | 311 | 0.0 | 4.3 | 0.00 | 0.00 | 0.00 | 61 | 1008.3 |
| 20260506183602 | 94 | 255 | 0.0 | 2.6 | 0.00 | 0.00 | 0.00 | 62 | 1008.3 |
| 20260506183102 | 94 | 0 | 0.0 | 2.6 | 0.00 | 0.00 | 0.00 | 62 | 1008.7 |
| 20260506182602 | 95 | 31 | 0.0 | 1.7 | 0.00 | 0.00 | 0.00 | 63 | 1008.4 |
| 20260506182104 | 94 | 212 | 0.0 | 5.2 | 0.00 | 0.00 | 0.00 | 62 | 1008.6 |
| 20260506181604 | 94 | 15 | 0.9 | 5.2 | 0.00 | 0.00 | 0.00 | 62 | 1008.7 |
| 20260506181557 | 94 | 0 | 0.0 | 5.2 | 0.00 | 0.00 | 0.00 | 62 | 1008.9 |
| 20260506181104 | 94 | 60 | 0.0 | 4.3 | 0.00 | 0.00 | 0.00 | 63 | 1008.6 |
| 20260506180603 | 93 | 39 | 0.9 | 4.3 | 0.00 | 0.00 | 0.00 | 64 | 1008.5 |
| 20260506180116 | 93 | 329 | 0.0 | 5.2 | 0.00 | 0.00 | 0.00 | 65 | 1008.7 |
| 20260506180051 | 92 | 0 | 0.0 | 5.2 | 0.00 | 0.00 | 0.00 | 64 | 1009.0 |
| 20260506175603 | 93 | 191 | 0.0 | 5.2 | 0.00 | 0.00 | 0.00 | 65 | 1008.6 |
| 20260506175105 | 92 | 233 | 0.0 | 3.5 | 0.00 | 0.00 | 0.00 | 66 | 1008.7 |
| 20260506174603 | 92 | 319 | 0.9 | 7.0 | 0.00 | 0.00 | 0.00 | 65 | 1008.8 |
| 20260506174547 | 91 | 0 | 0.0 | 6.1 | 0.00 | 0.00 | 0.00 | 65 | 1009.1 |
| 20260506174103 | 92 | 61 | 0.9 | 7.0 | 0.00 | 0.00 | 0.00 | 66 | 1008.8 |
| 20260506173823 | 92 | 335 | 0.0 | 1.7 | 0.00 | 0.00 | 0.00 | 68 | 1008.8 |
| 20260506173544 | 91 | 258 | 0.0 | 1.7 | 0.00 | 0.00 | 0.00 | 69 | 1008.9 |
| 20260506173053 | 91 | 0 | 0.0 | 0.9 | 0.00 | 0.00 | 0.00 | 69 | 1009.2 |
| 20260506172601 | 90 | 295 | 0.0 | 3.5 | 0.00 | 0.00 | 0.00 | 70 | 1008.9 |
| 20260506172102 | 90 | 295 | 0.0 | 3.5 | 0.00 | 0.00 | 0.00 | 70 | 1008.9 |
| 20260506171602 | 90 | 353 | 0.0 | 4.3 | 0.00 | 0.00 | 0.00 | 70 | 1008.9 |
| 20260506171550 | 90 | 0 | 0.0 | 4.3 | 0.00 | 0.00 | 0.00 | 69 | 1009.2 |
| 20260506171102 | 90 | 108 | 0.9 | 4.3 | 0.00 | 0.00 | 0.00 | 71 | 1008.9 |
| 20260506170602 | 90 | 184 | 0.0 | 3.5 | 0.00 | 0.00 | 0.00 | 70 | 1009.1 |
| 20260506170050 | 89 | 355 | 0.0 | 7.0 | 0.00 | 0.00 | 0.00 | 72 | 1009.4 |
| 20260506165823 | 89 | 342 | 0.0 | 7.8 | 0.00 | 0.00 | 0.00 | 73 | 1009.0 |
| 20260506165102 | 89 | 134 | 0.9 | 7.8 | 0.00 | 0.00 | 0.00 | 73 | 1009.1 |
| 20260506164602 | 89 | 266 | 0.9 | 5.2 | 0.00 | 0.00 | 0.00 | 72 | 1009.1 |
| 20260506164555 | 88 | 138 | 0.0 | 6.1 | 0.00 | 0.00 | 0.00 | 71 | 1009.5 |
| 20260506164102 | 89 | 4 | 0.0 | 3.5 | 0.00 | 0.00 | 0.00 | 73 | 1009.1 |
| 20260506163602 | 88 | 270 | 0.0 | 4.3 | 0.00 | 0.00 | 0.00 | 73 | 1009.0 |
| 20260506163102 | 88 | 317 | 0.0 | 6.1 | 0.00 | 0.00 | 0.00 | 74 | 1009.1 |
| 20260506163054 | 88 | 0 | 0.0 | 7.8 | 0.00 | 0.00 | 0.00 | 73 | 1009.4 |
| 20260506162601 | 87 | 198 | 0.9 | 6.1 | 0.00 | 0.00 | 0.00 | 75 | 1008.9 |
| 20260506162102 | 87 | 200 | 0.9 | 6.1 | 0.00 | 0.00 | 0.00 | 74 | 1009.0 |
| 20260506161616 | 87 | 184 | 0.9 | 6.1 | 0.00 | 0.00 | 0.00 | 73 | 1009.0 |
| 20260506161603 | 87 | 184 | 0.0 | 6.1 | 0.00 | 0.00 | 0.00 | 73 | 1009.3 |
| 20260506161555 | 87 | 305 | 0.0 | 6.1 | 0.00 | 0.00 | 0.00 | 74 | 1008.9 |
| 20260506160603 | 87 | 9 | 0.9 | 6.1 | 0.00 | 0.00 | 0.00 | 74 | 1008.9 |
| 20260506160116 | 87 | 220 | 0.0 | 3.5 | 0.00 | 0.00 | 0.00 | 74 | 1008.8 |
| 20260506160055 | 87 | 0 | 0.0 | 3.5 | 0.00 | 0.00 | 0.00 | 73 | 1009.2 |
| 20260506155601 | 87 | 327 | 0.0 | 3.5 | 0.00 | 0.00 | 0.00 | 74 | 1009.0 |
| 20260506155103 | 87 | 301 | 0.0 | 5.2 | 0.00 | 0.00 | 0.00 | 76 | 1008.9 |
| 20260506154603 | 87 | 208 | 0.0 | 5.2 | 0.00 | 0.00 | 0.00 | 76 | 1009.0 |
| 20260506154554 | 86 | 0 | 0.0 | 4.3 | 0.00 | 0.00 | 0.00 | 74 | 1009.3 |
| 20260506154102 | 87 | 2 | 0.0 | 5.2 | 0.00 | 0.00 | 0.00 | 75 | 1008.9 |
| 20260506153602 | 87 | 337 | 0.0 | 2.6 | 0.00 | 0.00 | 0.00 | 76 | 1008.9 |
| 20260506153334 | 86 | 227 | 0.9 | 6.1 | 0.00 | 0.00 | 0.00 | 76 | 1008.8 |
| 20260506153051 | 86 | 0 | 0.0 | 5.2 | 0.00 | 0.00 | 0.00 | 75 | 1009.0 |
| 20260506152601 | 87 | 354 | 0.9 | 6.1 | 0.00 | 0.00 | 0.00 | 75 | 1008.8 |
| 20260506152102 | 86 | 311 | 0.0 | 1.7 | 0.00 | 0.00 | 0.00 | 76 | 1008.9 |
| 20260506151604 | 86 | 283 | 0.0 | 1.7 | 0.00 | 0.00 | 0.00 | 77 | 1008.8 |
| 20260506151100 | 85 | 169 | 0.0 | 1.7 | 0.00 | 0.00 | 0.00 | 78 | 1008.9 |
| 20260506150818 | 85 | 70 | 0.0 | 5.2 | 0.00 | 0.00 | 0.00 | 78 | 1008.9 |
| 20260506150049 | 85 | 321 | 0.0 | 5.2 | 0.00 | 0.00 | 0.00 | 79 | 1009.0 |
| 20260506145536 | 85 | 60 | 0.0 | 3.5 | 0.00 | 0.00 | 0.00 | 79 | 1009.0 |
| 20260506145032 | 84 | 337 | 0.0 | 3.5 | 0.00 | 0.00 | 0.00 | 79 | 1009.1 |
| 20260506144548 | 84 | 295 | 0.0 | 3.5 | 0.00 | 0.00 | 0.00 | 79 | 1009.4 |
| 20260506144532 | 84 | 186 | 0.0 | 3.5 | 0.00 | 0.00 | 0.00 | 80 | 1009.1 |
| 20260506144020 | 83 | 91 | 0.0 | 3.5 | 0.00 | 0.00 | 0.00 | 81 | 1009.0 |
| 20260506143510 | 83 | 284 | 0.0 | 1.7 | 0.00 | 0.00 | 0.00 | 81 | 1009.2 |
| 20260506143227 | 82 | 211 | 0.0 | 1.7 | 0.00 | 0.00 | 0.00 | 83 | 1009.3 |
| 20260506143054 | 82 | 0 | 0.0 | 1.7 | 0.00 | 0.00 | 0.00 | 82 | 1009.6 |
| 20260506142505 | 82 | 10 | 0.0 | 0.9 | 0.00 | 0.00 | 0.00 | 83 | 1009.3 |
| 20260506142004 | 81 | 43 | 0.0 | 3.5 | 0.00 | 0.00 | 0.00 | 84 | 1009.4 |
| 20260506141550 | 81 | 0 | 0.0 | 2.6 | 0.00 | 0.00 | 0.00 | 83 | 1009.7 |
| 20260506141504 | 81 | 242 | 0.0 | 3.5 | 0.00 | 0.00 | 0.00 | 84 | 1009.4 |
| 20260506141227 | 81 | 256 | 0.0 | 5.2 | 0.00 | 0.00 | 0.00 | 84 | 1009.4 |
| 20260506140503 | 81 | 130 | 0.0 | 5.2 | 0.00 | 0.00 | 0.00 | 84 | 1009.4 |
| 20260506140103 | 80 | 211 | 0.0 | 1.7 | 0.00 | 0.00 | 0.00 | 83 | 1009.6 |
| 20260506140003 | 81 | 262 | 0.0 | 1.7 | 0.00 | 0.00 | 0.00 | 84 | 1009.4 |
| 20260506135502 | 81 | 156 | 0.0 | 1.7 | 0.00 | 0.00 | 0.00 | 84 | 1009.4 |
| 20260506135000 | 81 | 156 | 0.0 | 1.7 | 0.00 | 0.00 | 0.00 | 83 | 1009.3 |
| 20260506134545 | 80 | 0 | 0.0 | 6.1 | 0.00 | 0.00 | 0.00 | 83 | 1009.6 |
| 20260506134501 | 81 | 191 | 0.0 | 2.6 | 0.00 | 0.00 | 0.00 | 84 | 1009.3 |
| 20260506134001 | 81 | 191 | 0.0 | 7.0 | 0.00 | 0.00 | 0.00 | 84 | 1009.2 |
| 20260506133501 | 81 | 228 | 0.0 | 7.0 | 0.00 | 0.00 | 0.00 | 84 | 1009.3 |
| 20260506133053 | 80 | 0 | 0.0 | 2.6 | 0.00 | 0.00 | 0.00 | 84 | 1009.6 |
| 20260506133001 | 80 | 172 | 0.0 | 1.7 | 0.00 | 0.00 | 0.00 | 85 | 1009.3 |
| 20260506132501 | 80 | 241 | 0.0 | 1.7 | 0.00 | 0.00 | 0.00 | 85 | 1009.3 |
| 20260506132000 | 80 | 44 | 0.0 | 1.7 | 0.00 | 0.00 | 0.00 | 86 | 1009.3 |
| 20260506131552 | 80 | 0 | 0.0 | 2.6 | 0.00 | 0.00 | 0.00 | 85 | 1009.7 |
| 20260506131503 | 80 | 44 | 0.0 | 1.7 | 0.00 | 0.00 | 0.00 | 86 | 1009.3 |
| 20260506130958 | 80 | 160 | 0.0 | 2.6 | 0.00 | 0.00 | 0.00 | 86 | 1009.4 |
| 20260506130457 | 80 | 256 | 0.0 | 2.6 | 0.00 | 0.00 | 0.00 | 86 | 1009.2 |
| 20260506130110 | 79 | 0 | 0.0 | 0.9 | 0.00 | 0.00 | 0.00 | 86 | 1009.4 |
| 20260506125957 | 80 | 354 | 0.0 | 0.9 | 0.00 | 0.00 | 0.00 | 86 | 1009.1 |
| 20260506125451 | 80 | 354 | 0.0 | 0.9 | 0.00 | 0.00 | 0.00 | 86 | 1009.0 |
| 20260506124949 | 80 | 294 | 0.0 | 0.9 | 0.00 | 0.00 | 0.00 | 86 | 1009.0 |
| 20260506124550 | 79 | 0 | 0.0 | 2.6 | 0.00 | 0.00 | 0.00 | 86 | 1009.1 |
| 20260506124442 | 80 | 235 | 0.0 | 3.5 | 0.00 | 0.00 | 0.00 | 86 | 1008.9 |
| 20260506123935 | 80 | 235 | 0.0 | 4.3 | 0.00 | 0.00 | 0.00 | 86 | 1008.9 |
| 20260506123435 | 80 | 190 | 0.0 | 5.2 | 0.00 | 0.00 | 0.00 | 86 | 1008.8 |
| 20260506123157 | 80 | 201 | 0.9 | 4.3 | 0.00 | 0.00 | 0.00 | 86 | 1008.7 |
| 20260506123052 | 79 | 0 | 0.9 | 5.2 | 0.00 | 0.00 | 0.00 | 85 | 1008.9 |
| 20260506122433 | 80 | 323 | 0.0 | 1.7 | 0.00 | 0.00 | 0.00 | 86 | 1008.6 |
| 20260506121929 | 80 | 248 | 0.0 | 4.3 | 0.00 | 0.00 | 0.00 | 86 | 1008.5 |
| 20260506121551 | 79 | 0 | 0.0 | 3.5 | 0.00 | 0.00 | 0.00 | 86 | 1008.6 |
| 20260506121430 | 80 | 309 | 0.0 | 4.3 | 0.00 | 0.00 | 0.00 | 86 | 1008.3 |
| 20260506121149 | 80 | 139 | 0.0 | 2.6 | 0.00 | 0.00 | 0.00 | 86 | 1008.1 |
| 20260506120429 | 80 | 283 | 0.0 | 1.7 | 0.00 | 0.00 | 0.00 | 86 | 1008.0 |
| 20260506120053 | 79 | 0 | 0.0 | 1.7 | 0.00 | 0.00 | 0.00 | 86 | 1008.2 |
| 20260506115928 | 80 | 283 | 0.0 | 1.7 | 0.00 | 0.00 | 0.00 | 86 | 1007.9 |
| 20260506115428 | 80 | 351 | 0.0 | 0.0 | 0.00 | 0.00 | 0.00 | 87 | 1007.8 |
| 20260506114928 | 80 | 351 | 0.0 | 0.0 | 0.00 | 0.00 | 0.00 | 87 | 1007.8 |
| 20260506114716 | 80 | 351 | 0.0 | 0.9 | 0.00 | 0.00 | 0.00 | 87 | 1007.9 |
| 20260506114553 | 79 | 0 | 0.0 | 1.7 | 0.00 | 0.00 | 0.00 | 86 | 1008.0 |
| 20260506113929 | 80 | 351 | 0.0 | 3.5 | 0.00 | 0.00 | 0.00 | 87 | 1007.6 |
| 20260506113428 | 80 | 139 | 0.0 | 3.5 | 0.00 | 0.00 | 0.00 | 87 | 1007.6 |
| 20260506113047 | 79 | 0 | 0.0 | 2.6 | 0.00 | 0.00 | 0.00 | 86 | 1007.8 |
| 20260506112929 | 80 | 316 | 0.0 | 1.7 | 0.00 | 0.00 | 0.00 | 87 | 1007.5 |
| 20260506112429 | 80 | 90 | 0.0 | 0.0 | 0.00 | 0.00 | 0.00 | 87 | 1007.5 |
| 20260506111929 | 80 | 90 | 0.0 | 0.0 | 0.00 | 0.00 | 0.00 | 87 | 1007.4 |
| 20260506111911 | 80 | 90 | 0.0 | 0.0 | 0.00 | 0.00 | 0.00 | 87 | 1007.4 |
| 20260506111550 | 79 | 0 | 0.0 | 0.0 | 0.00 | 0.00 | 0.00 | 86 | 1007.7 |
| 20260506110930 | 80 | 43 | 0.0 | 0.0 | 0.00 | 0.00 | 0.00 | 86 | 1007.4 |
| 20260506110430 | 80 | 43 | 0.0 | 0.9 | 0.00 | 0.00 | 0.00 | 86 | 1007.4 |
| 20260506110100 | 79 | 0 | 0.0 | 0.9 | 0.00 | 0.00 | 0.00 | 86 | 1007.6 |
| 20260506105931 | 80 | 43 | 0.0 | 0.9 | 0.00 | 0.00 | 0.00 | 86 | 1007.3 |
| 20260506105430 | 80 | 158 | 0.0 | 0.9 | 0.00 | 0.00 | 0.00 | 86 | 1007.2 |
| 20260506104928 | 80 | 237 | 0.0 | 3.5 | 0.00 | 0.00 | 0.00 | 86 | 1007.1 |
| 20260506104558 | 79 | 0 | 0.0 | 2.6 | 0.00 | 0.00 | 0.00 | 86 | 1007.4 |
| 20260506104430 | 80 | 281 | 0.0 | 3.5 | 0.00 | 0.00 | 0.00 | 86 | 1007.0 |
| 20260506103929 | 80 | 139 | 0.0 | 2.6 | 0.00 | 0.00 | 0.00 | 86 | 1007.0 |
| 20260506103429 | 80 | 195 | 0.0 | 0.0 | 0.00 | 0.00 | 0.00 | 86 | 1007.0 |
| 20260506103051 | 79 | 0 | 0.0 | 0.0 | 0.00 | 0.00 | 0.00 | 85 | 1007.2 |
| 20260506102928 | 80 | 195 | 0.0 | 0.0 | 0.00 | 0.00 | 0.00 | 86 | 1006.9 |
| 20260506102653 | 80 | 195 | 0.0 | 2.6 | 0.00 | 0.00 | 0.00 | 86 | 1006.8 |
| 20260506101929 | 80 | 195 | 0.0 | 2.6 | 0.00 | 0.00 | 0.00 | 86 | 1006.8 |
| 20260506101556 | 80 | 0 | 0.0 | 3.5 | 0.00 | 0.00 | 0.00 | 85 | 1006.9 |
| 20260506101430 | 80 | 146 | 0.0 | 0.0 | 0.00 | 0.00 | 0.00 | 86 | 1006.7 |
| 20260506100929 | 80 | 157 | 0.0 | 4.3 | 0.00 | 0.00 | 0.00 | 86 | 1006.7 |
| 20260506100523 | 80 | 27 | 0.0 | 5.2 | 0.00 | 0.00 | 0.00 | 85 | 1006.5 |
| 20260506100445 | 80 | 326 | 0.0 | 4.3 | 0.00 | 0.00 | 0.00 | 85 | 1006.5 |
| 20260506100050 | 80 | 0 | 0.0 | 4.3 | 0.00 | 0.00 | 0.00 | 85 | 1007.0 |
| 20260506095429 | 80 | 27 | 0.0 | 5.2 | 0.00 | 0.00 | 0.00 | 85 | 1006.6 |
| 20260506095154 | 80 | 84 | 0.0 | 5.2 | 0.00 | 0.00 | 0.00 | 85 | 1006.5 |
| 20260506094557 | 80 | 0 | 0.0 | 6.1 | 0.00 | 0.00 | 0.00 | 84 | 1006.8 |
| 20260506094431 | 80 | 146 | 0.0 | 5.2 | 0.00 | 0.00 | 0.00 | 85 | 1006.5 |
| 20260506093923 | 80 | 316 | 0.9 | 5.2 | 0.00 | 0.00 | 0.00 | 85 | 1006.6 |
| 20260506093423 | 80 | 4 | 0.9 | 6.1 | 0.00 | 0.00 | 0.00 | 85 | 1006.6 |
| 20260506093055 | 80 | 0 | 0.0 | 6.1 | 0.00 | 0.00 | 0.00 | 84 | 1006.8 |
| 20260506092921 | 80 | 297 | 0.0 | 6.1 | 0.00 | 0.00 | 0.00 | 85 | 1006.6 |
| 20260506092420 | 80 | 299 | 0.0 | 7.0 | 0.00 | 0.00 | 0.00 | 85 | 1006.6 |
| 20260506091920 | 80 | 46 | 0.9 | 7.0 | 0.00 | 0.00 | 0.00 | 85 | 1006.6 |
| 20260506091548 | 80 | 0 | 0.9 | 7.8 | 0.00 | 0.00 | 0.00 | 85 | 1006.8 |
| 20260506091418 | 80 | 8 | 0.9 | 5.2 | 0.00 | 0.00 | 0.00 | 85 | 1006.7 |
| 20260506090917 | 80 | 124 | 0.9 | 5.2 | 0.00 | 0.00 | 0.00 | 85 | 1006.6 |
| 20260506090412 | 80 | 138 | 0.0 | 7.8 | 0.00 | 0.00 | 0.00 | 85 | 1006.7 |
| 20260506090052 | 80 | 267 | 0.9 | 7.8 | 0.00 | 0.00 | 0.00 | 85 | 1007.0 |
| 20260506085912 | 80 | 313 | 1.7 | 7.8 | 0.00 | 0.00 | 0.00 | 85 | 1006.7 |
| 20260506085407 | 80 | 247 | 0.9 | 7.0 | 0.00 | 0.00 | 0.00 | 85 | 1006.7 |
| 20260506084906 | 80 | 221 | 0.9 | 7.0 | 0.00 | 0.00 | 0.00 | 85 | 1006.8 |
| 20260506084553 | 80 | 346 | 0.9 | 7.8 | 0.00 | 0.00 | 0.00 | 84 | 1007.1 |
| 20260506084403 | 80 | 39 | 0.0 | 6.1 | 0.00 | 0.00 | 0.00 | 85 | 1006.7 |
| 20260506083903 | 80 | 219 | 0.9 | 7.0 | 0.00 | 0.00 | 0.00 | 85 | 1006.7 |
| 20260506083403 | 80 | 231 | 0.9 | 7.8 | 0.00 | 0.00 | 0.00 | 85 | 1006.9 |
| 20260506083051 | 80 | 314 | 0.9 | 9.6 | 0.00 | 0.00 | 0.00 | 85 | 1007.1 |
| 20260506082902 | 80 | 323 | 1.7 | 9.6 | 0.00 | 0.00 | 0.00 | 85 | 1006.9 |
| 20260506082402 | 80 | 197 | 1.7 | 9.6 | 0.00 | 0.00 | 0.00 | 85 | 1007.0 |
| 20260506082124 | 80 | 272 | 0.9 | 9.6 | 0.00 | 0.00 | 0.00 | 85 | 1007.0 |
| 20260506081625 | 80 | 251 | 0.9 | 9.6 | 0.00 | 0.00 | 0.00 | 85 | 1007.1 |
| 20260506081549 | 80 | 39 | 0.0 | 9.6 | 0.00 | 0.00 | 0.00 | 85 | 1007.3 |
| 20260506080901 | 80 | 248 | 0.9 | 9.6 | 0.00 | 0.00 | 0.00 | 86 | 1007.1 |
| 20260506080402 | 80 | 214 | 0.0 | 9.6 | 0.00 | 0.00 | 0.00 | 86 | 1007.0 |
| 20260506073402 | 80 | 259 | 0.9 | 7.8 | 0.00 | 0.00 | 0.00 | 86 | 1007.3 |
| 20260506073050 | 79 | 331 | 0.9 | 7.0 | 0.00 | 0.00 | 0.00 | 86 | 1007.6 |
| 20260506072903 | 80 | 352 | 0.9 | 7.8 | 0.00 | 0.00 | 0.00 | 86 | 1007.3 |
| 20260506072626 | 80 | 265 | 0.0 | 5.2 | 0.00 | 0.00 | 0.00 | 86 | 1007.3 |
| 20260506071902 | 80 | 192 | 0.0 | 7.8 | 0.00 | 0.00 | 0.00 | 86 | 1007.4 |
| 20260506071613 | 80 | 45 | 0.0 | 10.4 | 0.00 | 0.00 | 0.00 | 86 | 1007.6 |
| 20260506071606 | 79 | 0 | 0.9 | 9.6 | 0.00 | 0.00 | 0.00 | 85 | 1007.7 |
| 20260506071559 | 80 | 310 | 1.7 | 9.6 | 0.00 | 0.00 | 0.00 | 86 | 1007.5 |
| 20260506070402 | 80 | 49 | 1.7 | 10.4 | 0.00 | 0.00 | 0.00 | 86 | 1007.6 |
| 20260506070132 | 80 | 231 | 0.0 | 8.7 | 0.00 | 0.00 | 0.00 | 86 | 1007.6 |
| 20260506062402 | 80 | 158 | 0.9 | 7.0 | 0.00 | 0.00 | 0.00 | 85 | 1008.0 |
| 20260506061902 | 80 | 76 | 0.0 | 6.1 | 0.00 | 0.00 | 0.00 | 85 | 1008.0 |
| 20260506061553 | 80 | 179 | 0.9 | 7.8 | 0.00 | 0.00 | 0.00 | 85 | 1008.2 |
| 20260506061401 | 80 | 331 | 0.9 | 7.0 | 0.00 | 0.00 | 0.00 | 85 | 1008.0 |
| 20260506060901 | 80 | 245 | 1.7 | 7.0 | 0.00 | 0.00 | 0.00 | 85 | 1008.2 |
| 20260506060402 | 80 | 141 | 0.9 | 7.8 | 0.00 | 0.00 | 0.00 | 85 | 1008.1 |
| 20260506051402 | 81 | 217 | 0.9 | 7.0 | 0.00 | 0.00 | 0.00 | 84 | 1008.4 |
| 20260506050903 | 81 | 304 | 0.0 | 7.0 | 0.00 | 0.00 | 0.00 | 84 | 1008.4 |
| 20260506050402 | 81 | 88 | 0.0 | 4.3 | 0.00 | 0.00 | 0.00 | 84 | 1008.5 |
| 20260506044902 | 81 | 217 | 0.9 | 7.8 | 0.00 | 0.00 | 0.00 | 83 | 1008.6 |
| 20260506044555 | 80 | 0 | 0.0 | 7.8 | 0.00 | 0.00 | 0.00 | 83 | 1008.9 |
| 20260506044401 | 81 | 81 | 0.9 | 8.7 | 0.00 | 0.00 | 0.00 | 83 | 1008.6 |
| 20260506043902 | 81 | 250 | 0.9 | 8.7 | 0.00 | 0.00 | 0.00 | 83 | 1008.6 |
| 20260506043401 | 81 | 290 | 0.9 | 5.2 | 0.00 | 0.00 | 0.00 | 83 | 1008.6 |
| 20260506043050 | 81 | 0 | 0.0 | 7.0 | 0.00 | 0.00 | 0.00 | 82 | 1008.9 |
| 20260506042901 | 81 | 205 | 0.0 | 7.0 | 0.00 | 0.00 | 0.00 | 83 | 1008.5 |
| 20260506042401 | 81 | 165 | 1.7 | 7.8 | 0.00 | 0.00 | 0.00 | 83 | 1008.7 |
| 20260506041901 | 81 | 63 | 0.9 | 7.8 | 0.00 | 0.00 | 0.00 | 83 | 1008.7 |
| 20260506041603 | 81 | 0 | 1.7 | 8.7 | 0.00 | 0.00 | 0.00 | 82 | 1008.9 |
| 20260506041400 | 81 | 69 | 1.7 | 6.1 | 0.00 | 0.00 | 0.00 | 83 | 1008.7 |
| 20260506040902 | 81 | 13 | 0.0 | 6.1 | 0.00 | 0.00 | 0.00 | 83 | 1008.6 |
| 20260506040403 | 81 | 354 | 0.0 | 7.8 | 0.00 | 0.00 | 0.00 | 82 | 1008.6 |
| 20260506040050 | 81 | 68 | 0.9 | 8.7 | 0.00 | 0.00 | 0.00 | 82 | 1008.9 |
| 20260506035903 | 81 | 326 | 0.9 | 7.8 | 0.00 | 0.00 | 0.00 | 82 | 1008.6 |
| 20260506035402 | 81 | 288 | 0.9 | 6.1 | 0.00 | 0.00 | 0.00 | 82 | 1008.4 |
| 20260506034901 | 81 | 118 | 0.9 | 7.0 | 0.00 | 0.00 | 0.00 | 82 | 1008.3 |
| 20260506034547 | 81 | 0 | 0.0 | 8.7 | 0.00 | 0.00 | 0.00 | 81 | 1008.6 |
| 20260506034400 | 81 | 160 | 1.7 | 7.0 | 0.00 | 0.00 | 0.00 | 82 | 1008.4 |
| 20260506033901 | 81 | 271 | 1.7 | 9.6 | 0.00 | 0.00 | 0.00 | 82 | 1008.3 |
| 20260506033401 | 81 | 72 | 0.0 | 9.6 | 0.00 | 0.00 | 0.00 | 82 | 1008.1 |
| 20260506033058 | 81 | 187 | 0.9 | 8.7 | 0.00 | 0.00 | 0.00 | 81 | 1008.3 |
| 20260506032901 | 81 | 234 | 1.7 | 7.8 | 0.00 | 0.00 | 0.00 | 82 | 1008.1 |
| 20260506032842 | 81 | 212 | 3.5 | 7.8 | 0.00 | 0.00 | 0.00 | 81 | 1008.0 |
| 20260506031901 | 82 | 296 | 0.9 | 9.6 | 0.00 | 0.00 | 0.00 | 82 | 1008.0 |
| 20260506031621 | 82 | 306 | 1.7 | 9.6 | 0.00 | 0.00 | 0.00 | 81 | 1008.0 |
| 20260506031554 | 81 | 30 | 2.6 | 9.6 | 0.00 | 0.00 | 0.00 | 81 | 1008.3 |
| 20260506030902 | 82 | 147 | 1.7 | 8.7 | 0.00 | 0.00 | 0.00 | 81 | 1008.0 |
| 20260506030649 | 82 | 167 | 2.6 | 8.7 | 0.00 | 0.00 | 0.00 | 81 | 1007.9 |
| 20260506030052 | 81 | 202 | 0.9 | 7.0 | 0.00 | 0.00 | 0.00 | 80 | 1008.0 |
| 20260506025902 | 82 | 94 | 0.0 | 7.8 | 0.00 | 0.00 | 0.00 | 81 | 1007.8 |
| 20260506025847 | 82 | 301 | 1.7 | 7.0 | 0.00 | 0.00 | 0.00 | 81 | 1007.7 |
| 20260506024902 | 82 | 181 | 0.9 | 7.0 | 0.00 | 0.00 | 0.00 | 81 | 1007.7 |
| 20260506024552 | 81 | 312 | 0.0 | 10.4 | 0.00 | 0.00 | 0.00 | 80 | 1007.9 |
| 20260506024401 | 82 | 202 | 0.9 | 11.3 | 0.00 | 0.00 | 0.00 | 81 | 1007.6 |
| 20260506023901 | 82 | 222 | 2.6 | 11.3 | 0.00 | 0.00 | 0.00 | 81 | 1007.5 |
| 20260506023401 | 82 | 108 | 1.7 | 9.6 | 0.00 | 0.00 | 0.00 | 81 | 1007.4 |
| 20260506023052 | 81 | 269 | 0.9 | 8.7 | 0.00 | 0.00 | 0.00 | 80 | 1007.7 |
| 20260506022902 | 82 | 24 | 0.9 | 7.8 | 0.00 | 0.00 | 0.00 | 80 | 1007.3 |
| 20260506022403 | 82 | 147 | 1.7 | 7.8 | 0.00 | 0.00 | 0.00 | 80 | 1007.4 |
| 20260506021902 | 82 | 311 | 0.0 | 7.8 | 0.00 | 0.00 | 0.00 | 80 | 1007.3 |
| 20260506021545 | 82 | 0 | 0.9 | 7.0 | 0.00 | 0.00 | 0.00 | 79 | 1007.4 |
| 20260506021401 | 82 | 143 | 0.0 | 7.8 | 0.00 | 0.00 | 0.00 | 80 | 1007.2 |
| 20260506020902 | 82 | 309 | 0.0 | 7.8 | 0.00 | 0.00 | 0.00 | 80 | 1007.2 |
| 20260506020403 | 82 | 328 | 1.7 | 7.8 | 0.00 | 0.00 | 0.00 | 80 | 1007.0 |
| 20260506020052 | 82 | 105 | 0.9 | 8.7 | 0.00 | 0.00 | 0.00 | 79 | 1007.2 |
| 20260506015902 | 82 | 254 | 0.9 | 7.0 | 0.00 | 0.00 | 0.00 | 79 | 1006.9 |
| 20260506015403 | 82 | 148 | 0.9 | 10.4 | 0.00 | 0.00 | 0.00 | 79 | 1006.7 |
| 20260506014902 | 83 | 307 | 0.9 | 10.4 | 0.00 | 0.00 | 0.00 | 79 | 1006.7 |
| 20260506014557 | 82 | 58 | 0.0 | 7.8 | 0.00 | 0.00 | 0.00 | 78 | 1006.9 |
| 20260506014402 | 83 | 200 | 0.9 | 7.0 | 0.00 | 0.00 | 0.00 | 78 | 1006.7 |
| 20260506014120 | 83 | 49 | 0.0 | 7.8 | 0.00 | 0.00 | 0.00 | 78 | 1006.7 |
| 20260506013403 | 83 | 218 | 0.9 | 10.4 | 0.00 | 0.00 | 0.00 | 78 | 1006.6 |
| 20260506013055 | 82 | 248 | 2.6 | 10.4 | 0.00 | 0.00 | 0.00 | 77 | 1006.9 |
| 20260506012903 | 83 | 331 | 3.5 | 10.4 | 0.00 | 0.00 | 0.00 | 78 | 1006.6 |
| 20260506012403 | 83 | 354 | 0.9 | 10.4 | 0.00 | 0.00 | 0.00 | 77 | 1006.6 |
| 20260506011903 | 83 | 95 | 1.7 | 10.4 | 0.00 | 0.00 | 0.00 | 77 | 1006.3 |
| 20260506011548 | 83 | 323 | 0.9 | 10.4 | 0.00 | 0.00 | 0.00 | 77 | 1006.6 |
| 20260506011402 | 83 | 290 | 0.9 | 7.0 | 0.00 | 0.00 | 0.00 | 77 | 1006.3 |
| 20260506010902 | 83 | 328 | 0.9 | 7.0 | 0.00 | 0.00 | 0.00 | 77 | 1006.2 |
| 20260506010402 | 83 | 11 | 0.0 | 7.8 | 0.00 | 0.00 | 0.00 | 77 | 1006.1 |
| 20260506010048 | 83 | 105 | 0.9 | 9.6 | 0.00 | 0.00 | 0.00 | 76 | 1006.2 |
| 20260506005902 | 83 | 354 | 0.9 | 10.4 | 0.00 | 0.00 | 0.00 | 76 | 1006.1 |
| 20260506005402 | 84 | 177 | 0.9 | 10.4 | 0.00 | 0.00 | 0.00 | 76 | 1006.0 |
| 20260506004902 | 84 | 358 | 1.7 | 11.3 | 0.00 | 0.00 | 0.00 | 75 | 1006.0 |
| 20260506004555 | 84 | 153 | 1.7 | 11.3 | 0.00 | 0.00 | 0.00 | 74 | 1006.3 |
| 20260506004402 | 85 | 263 | 1.7 | 11.3 | 0.00 | 0.00 | 0.00 | 74 | 1006.0 |
| 20260506004123 | 85 | 44 | 0.9 | 7.8 | 0.00 | 0.00 | 0.00 | 74 | 1005.9 |
| 20260506003846 | 85 | 313 | 0.9 | 7.8 | 0.00 | 0.00 | 0.00 | 74 | 1005.9 |
| 20260506003128 | 86 | 195 | 0.9 | 7.8 | 0.00 | 0.00 | 0.00 | 73 | 1005.8 |
| 20260506003050 | 85 | 292 | 0.9 | 9.6 | 0.00 | 0.00 | 0.00 | 73 | 1006.1 |
| 20260506002403 | 86 | 352 | 1.7 | 7.8 | 0.00 | 0.00 | 0.00 | 73 | 1005.8 |
| 20260506001902 | 86 | 165 | 3.5 | 8.7 | 0.00 | 0.00 | 0.00 | 72 | 1005.6 |
| 20260506001609 | 86 | 219 | 0.9 | 11.3 | 0.00 | 0.00 | 0.00 | 71 | 1005.9 |
| 20260506001401 | 87 | 223 | 1.7 | 11.3 | 0.00 | 0.00 | 0.00 | 71 | 1005.5 |
| 20260506000900 | 87 | 261 | 3.5 | 11.3 | 0.00 | 0.00 | 0.00 | 71 | 1005.4 |
| 20260506000401 | 87 | 174 | 1.7 | 6.1 | 0.00 | 0.00 | 0.00 | 70 | 1005.4 |
| 20260506000055 | 87 | 233 | 0.9 | 9.6 | 0.00 | 0.00 | 0.00 | 69 | 1005.8 |
| 20260505235901 | 88 | 111 | 1.7 | 9.6 | 0.00 | 0.00 | 0.00 | 69 | 1005.4 |
| 20260505235401 | 88 | 280 | 0.9 | 9.6 | 0.00 | 0.00 | 0.00 | 68 | 1005.4 |
| 20260505234901 | 89 | 139 | 2.6 | 8.7 | 0.00 | 0.00 | 0.00 | 68 | 1005.2 |
| 20260505234553 | 88 | 239 | 0.9 | 6.1 | 0.00 | 0.00 | 0.00 | 67 | 1005.5 |
| 20260505234401 | 89 | 105 | 1.7 | 6.1 | 0.00 | 0.00 | 0.00 | 68 | 1005.3 |
| 20260505233900 | 89 | 134 | 0.0 | 6.1 | 0.00 | 0.00 | 0.00 | 67 | 1005.3 |
| 20260505233403 | 89 | 181 | 1.7 | 8.7 | 0.00 | 0.00 | 0.00 | 67 | 1005.3 |
| 20260505233056 | 89 | 248 | 0.9 | 9.6 | 0.00 | 0.00 | 0.00 | 66 | 1005.5 |
| 20260505232901 | 89 | 214 | 1.7 | 10.4 | 0.00 | 0.00 | 0.00 | 67 | 1005.1 |
| 20260505232401 | 89 | 109 | 2.6 | 10.4 | 0.00 | 0.00 | 0.00 | 67 | 1005.2 |